Tracking 30995 objects as of 5-Jul-2025
HD Live streaming from Space Station
objects crossing your sky now

STARLINK-11111

Track STARLINK-11111 now!
10-day predictions
STARLINK-11111 is classified as:


NORAD ID: 59764
Int'l Code: 2024-091M
Perigee: 366.3 km
Apogee: 367.4 km
Inclination: 53.2 °
Period: 91.7 minutes
Semi major axis: 6737 km
RCS: Unknown
Launch date: May 14, 2024
Source: United States (US)
Launch site: AIR FORCE WESTERN TEST RANGE (AFWTR)
Your satellite tracking list
STARLINK-1662
Track 1 satellite(s)




NASA's NSSDC Master Catalog

Two Line Element Set (TLE):
1 59764U 24091M   25186.62441252 -.00001516  00000-0 -76592-5 0  9994
2 59764  53.1586 343.8628 0000779  38.1570 321.9503 15.69710266 66718
Source of the keplerian elements: AFSPC